| time (UTC) | temp C | wind direction | speed KPH | gust KPH | rain 1hr cm | rain 24hr cm | rain mn cm | humidity % | barometer mb |
| 20260506015315 | 18 | 135 | 0.0 | 3.2 | 0.00 | 0.00 | 0.00 | 91 | 1013.5 |
| 20260506014805 | 18 | 158 | 1.6 | 6.4 | 0.00 | 0.00 | 0.00 | 90 | 1013.4 |
| 20260506014254 | 18 | 180 | 1.6 | 9.7 | 0.00 | 0.00 | 0.00 | 90 | 1013.4 |
| 20260506013744 | 18 | 113 | 3.2 | 9.7 | 0.00 | 0.00 | 0.00 | 90 | 1013.5 |
| 20260506013234 | 18 | 293 | 0.0 | 6.4 | 0.00 | 0.00 | 0.00 | 90 | 1013.5 |
| 20260506012946 | 18 | 203 | 1.6 | 6.4 | 0.00 | 0.00 | 0.00 | 91 | 1013.2 |
| 20260506012214 | 18 | 158 | 0.0 | 3.2 | 0.00 | 0.00 | 0.00 | 91 | 1013.0 |
| 20260506011706 | 18 | 180 | 0.0 | 6.4 | 0.00 | 0.00 | 0.00 | 90 | 1013.3 |
| 20260506011154 | 18 | 113 | 3.2 | 6.4 | 0.00 | 0.00 | 0.00 | 90 | 1013.1 |
| 20260506010644 | 18 | 113 | 1.6 | 6.4 | 0.00 | 0.00 | 0.00 | 90 | 1013.2 |
| 20260506005623 | 18 | 113 | 0.0 | 11.3 | 0.00 | 0.00 | 0.00 | 90 | 1012.9 |
| 20260506005113 | 18 | 135 | 3.2 | 11.3 | 0.00 | 0.00 | 0.00 | 90 | 1013.2 |
| 20260506004825 | 18 | 113 | 6.4 | 9.7 | 0.00 | 0.00 | 0.00 | 91 | 1013.4 |
| 20260506004053 | 18 | 113 | 4.8 | 9.7 | 0.00 | 0.00 | 0.00 | 91 | 1013.4 |
| 20260506003812 | 18 | 113 | 3.2 | 9.7 | 0.00 | 0.00 | 0.00 | 91 | 1013.4 |
| 20260506003032 | 18 | 180 | 3.2 | 6.4 | 0.00 | 0.00 | 0.00 | 91 | 1013.6 |
| 20260506002522 | 18 | 135 | 3.2 | 11.3 | 0.00 | 0.00 | 0.00 | 91 | 1013.3 |
| 20260506002012 | 18 | 203 | 3.2 | 11.3 | 0.00 | 0.00 | 0.00 | 91 | 1013.4 |
| 20260506001502 | 18 | 248 | 0.0 | 14.5 | 0.00 | 0.00 | 0.00 | 91 | 1013.5 |
| 20260506000952 | 18 | 203 | 4.8 | 14.5 | 0.00 | 0.00 | 0.00 | 91 | 1013.5 |
| 20260506000710 | 18 | 135 | 1.6 | 9.7 | 0.00 | 0.00 | 0.00 | 90 | 1013.6 |
| 20260505235932 | 18 | 135 | 1.6 | 6.4 | 0.00 | 0.00 | 0.00 | 90 | 1013.8 |
| 20260505235421 | 18 | 203 | 0.0 | 6.4 | 0.00 | 0.00 | 0.00 | 90 | 1013.7 |
| 20260505234911 | 18 | 158 | 0.0 | 3.2 | 0.00 | 0.00 | 0.00 | 90 | 1013.8 |
| 20260505234401 | 18 | 158 | 0.0 | 9.7 | 0.00 | 0.00 | 0.00 | 90 | 1013.5 |
| 20260505233851 | 18 | 90 | 1.6 | 9.7 | 0.00 | 0.00 | 0.00 | 89 | 1013.5 |
| 20260505233342 | 19 | 225 | 1.6 | 9.7 | 0.00 | 0.00 | 0.00 | 89 | 1013.4 |
| 20260505232832 | 19 | 225 | 1.6 | 9.7 | 0.00 | 0.00 | 0.00 | 89 | 1013.6 |
| 20260505232321 | 19 | 203 | 0.0 | 9.7 | 0.00 | 0.00 | 0.00 | 88 | 1013.4 |
| 20260505231811 | 19 | 158 | 0.0 | 9.7 | 0.00 | 0.00 | 0.00 | 88 | 1013.4 |
| 20260505231017 | 19 | 158 | 0.0 | 6.4 | 0.00 | 0.00 | 0.00 | 88 | 1013.6 |
| 20260505230241 | 19 | 203 | 0.0 | 6.4 | 0.00 | 0.00 | 0.00 | 88 | 1013.5 |
| 20260505225731 | 19 | 135 | 0.0 | 6.4 | 0.00 | 0.00 | 0.00 | 88 | 1013.5 |
| 20260505225220 | 19 | 90 | 1.6 | 11.3 | 0.00 | 0.00 | 0.00 | 88 | 1013.4 |
| 20260505224932 | 19 | 90 | 1.6 | 11.3 | 0.00 | 0.00 | 0.00 | 88 | 1013.3 |
| 20260505224202 | 19 | 113 | 3.2 | 9.7 | 0.00 | 0.00 | 0.00 | 88 | 1013.0 |
| 20260505223907 | 19 | 113 | 6.4 | 11.3 | 0.00 | 0.00 | 0.00 | 88 | 1013.1 |
| 20260505223141 | 19 | 113 | 0.0 | 11.3 | 0.00 | 0.00 | 0.00 | 88 | 1013.1 |
| 20260505222630 | 19 | 135 | 1.6 | 9.7 | 0.00 | 0.00 | 0.00 | 88 | 1013.0 |
| 20260505222120 | 20 | 158 | 6.4 | 9.7 | 0.00 | 0.00 | 0.00 | 87 | 1012.9 |
| 20260505221611 | 20 | 90 | 0.0 | 6.4 | 0.00 | 0.00 | 0.00 | 87 | 1012.9 |
| 20260505221059 | 20 | 90 | 3.2 | 6.4 | 0.00 | 0.00 | 0.00 | 87 | 1013.0 |
| 20260505220550 | 20 | 203 | 0.0 | 9.7 | 0.00 | 0.00 | 0.00 | 87 | 1013.0 |
| 20260505220305 | 20 | 135 | 1.6 | 9.7 | 0.00 | 0.00 | 0.00 | 87 | 1013.2 |
| 20260505215748 | 20 | 135 | 1.6 | 9.7 | 0.00 | 0.00 | 0.00 | 87 | 1013.1 |
| 20260505215245 | 20 | 158 | 1.6 | 6.4 | 0.00 | 0.00 | 0.00 | 86 | 1013.0 |
| 20260505214509 | 20 | 113 | 0.0 | 6.4 | 0.00 | 0.00 | 0.00 | 86 | 1013.1 |
| 20260505213959 | 20 | 158 | 0.0 | 6.4 | 0.00 | 0.00 | 0.00 | 86 | 1012.8 |
| 20260505212939 | 20 | 135 | 0.0 | 3.2 | 0.00 | 0.00 | 0.00 | 86 | 1013.0 |
| 20260505212429 | 20 | 180 | 1.6 | 3.2 | 0.00 | 0.00 | 0.00 | 86 | 1012.9 |
| 20260505212144 | 20 | 68 | 0.0 | 6.4 | 0.00 | 0.00 | 0.00 | 85 | 1012.9 |
| 20260505211408 | 20 | 135 | 1.6 | 6.4 | 0.00 | 0.00 | 0.00 | 85 | 1012.7 |
| 20260505210858 | 20 | 90 | 0.0 | 3.2 | 0.00 | 0.00 | 0.00 | 85 | 1012.6 |
| 20260505210348 | 20 | 135 | 0.0 | 3.2 | 0.00 | 0.00 | 0.00 | 84 | 1012.4 |
| 20260505205838 | 21 | 158 | 0.0 | 6.4 | 0.00 | 0.00 | 0.00 | 84 | 1012.3 |
| 20260505205328 | 21 | 158 | 0.0 | 6.4 | 0.00 | 0.00 | 0.00 | 84 | 1012.5 |
| 20260505204817 | 21 | 135 | 3.2 | 6.4 | 0.00 | 0.00 | 0.00 | 84 | 1012.6 |
| 20260505204307 | 21 | 135 | 0.0 | 6.4 | 0.00 | 0.00 | 0.00 | 84 | 1012.4 |
| 20260505203757 | 21 | 158 | 1.6 | 6.4 | 0.00 | 0.00 | 0.00 | 84 | 1012.4 |
| 20260505202737 | 21 | 180 | 0.0 | 3.2 | 0.00 | 0.00 | 0.00 | 83 | 1012.7 |
| 20260505202445 | 21 | 113 | 0.0 | 3.2 | 0.00 | 0.00 | 0.00 | 84 | 1012.5 |
| 20260505201717 | 21 | 0 | 0.0 | 3.2 | 0.00 | 0.00 | 0.00 | 84 | 1012.6 |
| 20260505201208 | 21 | 135 | 0.0 | 6.4 | 0.00 | 0.00 | 0.00 | 84 | 1012.5 |
| 20260505200657 | 21 | 158 | 0.0 | 6.4 | 0.00 | 0.00 | 0.00 | 83 | 1012.5 |
| 20260505200146 | 21 | 135 | 0.0 | 6.4 | 0.00 | 0.00 | 0.00 | 83 | 1012.4 |
| 20260505195636 | 21 | 158 | 0.0 | 3.2 | 0.00 | 0.00 | 0.00 | 83 | 1012.7 |
| 20260505195127 | 21 | 135 | 0.0 | 3.2 | 0.00 | 0.00 | 0.00 | 83 | 1012.7 |
| 20260505194837 | 21 | 203 | 0.0 | 6.4 | 0.00 | 0.00 | 0.00 | 83 | 1012.8 |
| 20260505194106 | 21 | 90 | 1.6 | 6.4 | 0.00 | 0.00 | 0.00 | 83 | 1012.6 |
| 20260505193556 | 21 | 203 | 3.2 | 6.4 | 0.00 | 0.00 | 0.00 | 83 | 1012.7 |
| 20260505193047 | 21 | 135 | 0.0 | 3.2 | 0.00 | 0.00 | 0.00 | 83 | 1012.8 |
| 20260505192535 | 21 | 180 | 0.0 | 9.7 | 0.00 | 0.00 | 0.00 | 83 | 1012.8 |
| 20260505192025 | 21 | 158 | 0.0 | 9.7 | 0.00 | 0.00 | 0.00 | 83 | 1012.7 |
| 20260505191517 | 21 | 135 | 0.0 | 6.4 | 0.00 | 0.00 | 0.00 | 83 | 1012.8 |
| 20260505191231 | 21 | 135 | 1.6 | 6.4 | 0.00 | 0.00 | 0.00 | 82 | 1012.6 |
| 20260505190456 | 21 | 23 | 0.0 | 3.2 | 0.00 | 0.00 | 0.00 | 82 | 1012.6 |
| 20260505185945 | 21 | 90 | 0.0 | 3.2 | 0.00 | 0.00 | 0.00 | 82 | 1012.6 |
| 20260505185435 | 21 | 135 | 0.0 | 6.4 | 0.00 | 0.00 | 0.00 | 82 | 1012.5 |
| 20260505184925 | 22 | 203 | 0.0 | 6.4 | 0.00 | 0.00 | 0.00 | 81 | 1012.9 |
| 20260505184415 | 22 | 180 | 0.0 | 3.2 | 0.00 | 0.00 | 0.00 | 82 | 1012.9 |
| 20260505183904 | 21 | 225 | 0.0 | 6.4 | 0.00 | 0.00 | 0.00 | 82 | 1012.7 |
| 20260505182844 | 22 | 203 | 0.0 | 3.2 | 0.00 | 0.00 | 0.00 | 81 | 1012.9 |
| 20260505182334 | 22 | 135 | 0.0 | 3.2 | 0.00 | 0.00 | 0.00 | 81 | 1012.9 |
| 20260505182043 | 22 | 135 | 0.0 | 0.0 | 0.00 | 0.00 | 0.00 | 80 | 1013.0 |
| 20260505181314 | 22 | 135 | 0.0 | 0.0 | 0.00 | 0.00 | 0.00 | 81 | 1013.2 |
| 20260505181026 | 22 | 0 | 0.0 | 0.0 | 0.00 | 0.00 | 0.00 | 81 | 1013.1 |
| 20260505180254 | 22 | 0 | 0.0 | 0.0 | 0.00 | 0.00 | 0.00 | 80 | 1013.3 |
| 20260505175744 | 22 | 338 | 0.0 | 0.0 | 0.00 | 0.00 | 0.00 | 80 | 1013.2 |
| 20260505175236 | 22 | 135 | 0.0 | 0.0 | 0.00 | 0.00 | 0.00 | 81 | 1013.3 |
| 20260505174724 | 22 | 180 | 0.0 | 0.0 | 0.00 | 0.00 | 0.00 | 81 | 1013.2 |
| 20260505174214 | 22 | 158 | 0.0 | 0.0 | 0.00 | 0.00 | 0.00 | 81 | 1013.1 |
| 20260505173925 | 22 | 158 | 0.0 | 0.0 | 0.00 | 0.00 | 0.00 | 81 | 1013.3 |
| 20260505173153 | 22 | 180 | 0.0 | 0.0 | 0.00 | 0.00 | 0.00 | 81 | 1013.5 |
| 20260505172643 | 21 | 203 | 0.0 | 0.0 | 0.00 | 0.00 | 0.00 | 81 | 1013.3 |
| 20260505172133 | 21 | 180 | 0.0 | 0.0 | 0.00 | 0.00 | 0.00 | 81 | 1013.3 |
| 20260505171848 | 22 | 203 | 0.0 | 0.0 | 0.00 | 0.00 | 0.00 | 81 | 1013.1 |
| 20260505170604 | 22 | 225 | 0.0 | 0.0 | 0.00 | 0.00 | 0.00 | 80 | 1013.3 |
| 20260505170053 | 22 | 203 | 0.0 | 0.0 | 0.00 | 0.00 | 0.00 | 81 | 1013.4 |
| 20260505165543 | 22 | 225 | 0.0 | 0.0 | 0.00 | 0.00 | 0.00 | 81 | 1013.5 |
| 20260505165034 | 22 | 225 | 0.0 | 0.0 | 0.00 | 0.00 | 0.00 | 82 | 1013.4 |
| 20260505164750 | 21 | 248 | 0.0 | 3.2 | 0.00 | 0.00 | 0.00 | 82 | 1013.5 |
| 20260505164012 | 21 | 68 | 0.0 | 6.4 | 0.00 | 0.00 | 0.00 | 83 | 1013.6 |
| 20260505163502 | 21 | 158 | 0.0 | 6.4 | 0.00 | 0.00 | 0.00 | 83 | 1013.5 |
| 20260505163212 | 21 | 23 | 0.0 | 6.4 | 0.00 | 0.00 | 0.00 | 84 | 1013.4 |
| 20260505162659 | 21 | 315 | 0.0 | 6.4 | 0.00 | 0.00 | 0.00 | 84 | 1013.5 |
| 20260505162156 | 21 | 68 | 0.0 | 6.4 | 0.00 | 0.00 | 0.00 | 84 | 1013.7 |
| 20260505161648 | 21 | 135 | 0.0 | 6.4 | 0.00 | 0.00 | 0.00 | 83 | 1013.6 |
| 20260505160912 | 21 | 45 | 1.6 | 6.4 | 0.00 | 0.00 | 0.00 | 83 | 1013.9 |
| 20260505160402 | 21 | 68 | 1.6 | 6.4 | 0.00 | 0.00 | 0.00 | 82 | 1013.8 |
| 20260505153301 | 22 | 90 | 0.0 | 6.4 | 0.00 | 0.00 | 0.00 | 78 | 1013.9 |
| 20260505152751 | 22 | 45 | 0.0 | 6.4 | 0.00 | 0.00 | 0.00 | 77 | 1014.0 |
| 20260505152241 | 22 | 90 | 0.0 | 6.4 | 0.00 | 0.00 | 0.00 | 76 | 1013.9 |
| 20260505151954 | 22 | 68 | 0.0 | 3.2 | 0.00 | 0.00 | 0.00 | 76 | 1013.8 |
| 20260505151220 | 22 | 45 | 0.0 | 0.0 | 0.00 | 0.00 | 0.00 | 76 | 1013.9 |
| 20260505150711 | 21 | 135 | 0.0 | 0.0 | 0.00 | 0.00 | 0.00 | 78 | 1013.9 |
| 20260505150200 | 21 | 90 | 0.0 | 3.2 | 0.00 | 0.00 | 0.00 | 79 | 1013.7 |
| 20260505130308 | 17 | 135 | 0.0 | 0.0 | 0.00 | 0.00 | 0.00 | 86 | 1014.3 |
| 20260505124737 | 16 | 180 | 0.0 | 0.0 | 0.00 | 0.00 | 0.00 | 85 | 1014.3 |
| 20260505124227 | 16 | 158 | 0.0 | 0.0 | 0.00 | 0.00 | 0.00 | 86 | 1014.3 |
| 20260505123940 | 16 | 135 | 0.0 | 3.2 | 0.00 | 0.00 | 0.00 | 86 | 1014.3 |
| 20260505123207 | 16 | 158 | 0.0 | 3.2 | 0.00 | 0.00 | 0.00 | 85 | 1014.1 |
| 20260505122657 | 16 | 135 | 0.0 | 0.0 | 0.00 | 0.00 | 0.00 | 86 | 1014.0 |
| 20260505122147 | 16 | 180 | 0.0 | 0.0 | 0.00 | 0.00 | 0.00 | 86 | 1014.2 |
| 20260505121636 | 16 | 0 | 0.0 | 0.0 | 0.00 | 0.00 | 0.00 | 86 | 1014.0 |
| 20260505121127 | 16 | 68 | 0.0 | 0.0 | 0.00 | 0.00 | 0.00 | 86 | 1014.1 |
| 20260505120616 | 16 | 158 | 0.0 | 0.0 | 0.00 | 0.00 | 0.00 | 86 | 1014.0 |
| 20260505120106 | 16 | 180 | 0.0 | 0.0 | 0.00 | 0.00 | 0.00 | 85 | 1014.1 |
| 20260505115556 | 16 | 135 | 0.0 | 3.2 | 0.00 | 0.00 | 0.00 | 85 | 1014.0 |
| 20260505115310 | 16 | 23 | 0.0 | 3.2 | 0.00 | 0.00 | 0.00 | 85 | 1013.9 |
| 20260505114536 | 16 | 0 | 0.0 | 6.4 | 0.00 | 0.00 | 0.00 | 85 | 1013.7 |
| 20260505114026 | 16 | 23 | 0.0 | 6.4 | 0.00 | 0.00 | 0.00 | 86 | 1013.8 |
| 20260505113520 | 16 | 135 | 0.0 | 3.2 | 0.00 | 0.00 | 0.00 | 86 | 1013.6 |
| 20260505113005 | 15 | 180 | 0.0 | 0.0 | 0.00 | 0.00 | 0.00 | 87 | 1013.5 |
| 20260505112456 | 15 | 158 | 0.0 | 0.0 | 0.00 | 0.00 | 0.00 | 87 | 1013.4 |
| 20260505111945 | 15 | 158 | 0.0 | 0.0 | 0.00 | 0.00 | 0.00 | 87 | 1013.4 |
| 20260505110925 | 15 | 180 | 0.0 | 0.0 | 0.00 | 0.00 | 0.00 | 87 | 1013.2 |
| 20260505110415 | 15 | 180 | 0.0 | 0.0 | 0.00 | 0.00 | 0.00 | 87 | 1013.2 |
| 20260505101956 | 15 | 180 | 0.0 | 0.0 | 0.00 | 0.00 | 0.00 | 86 | 1012.9 |
| 20260505101440 | 15 | 180 | 0.0 | 0.0 | 0.00 | 0.00 | 0.00 | 86 | 1012.9 |
| 20260505100930 | 15 | 180 | 0.0 | 0.0 | 0.00 | 0.00 | 0.00 | 86 | 1012.7 |
| 20260505100420 | 15 | 158 | 0.0 | 0.0 | 0.00 | 0.00 | 0.00 | 86 | 1012.6 |
| 20260505095910 | 15 | 180 | 0.0 | 0.0 | 0.00 | 0.00 | 0.00 | 86 | 1012.7 |
| 20260505095623 | 14 | 158 | 0.0 | 0.0 | 0.00 | 0.00 | 0.00 | 86 | 1012.5 |
| 20260505095114 | 14 | 158 | 0.0 | 0.0 | 0.00 | 0.00 | 0.00 | 86 | 1012.6 |
| 20260505094340 | 14 | 180 | 0.0 | 0.0 | 0.00 | 0.00 | 0.00 | 86 | 1012.6 |
| 20260505094052 | 14 | 180 | 0.0 | 0.0 | 0.00 | 0.00 | 0.00 | 86 | 1012.6 |
| 20260505093321 | 14 | 180 | 0.0 | 0.0 | 0.00 | 0.00 | 0.00 | 86 | 1012.4 |
| 20260505092809 | 14 | 180 | 0.0 | 0.0 | 0.00 | 0.00 | 0.00 | 86 | 1012.6 |
| 20260505092259 | 14 | 180 | 0.0 | 0.0 | 0.00 | 0.00 | 0.00 | 86 | 1012.7 |
| 20260505091749 | 14 | 180 | 0.0 | 0.0 | 0.00 | 0.00 | 0.00 | 86 | 1012.4 |
| 20260505091240 | 14 | 180 | 0.0 | 0.0 | 0.00 | 0.00 | 0.00 | 86 | 1012.4 |
| 20260505090729 | 14 | 180 | 0.0 | 0.0 | 0.00 | 0.00 | 0.00 | 86 | 1012.4 |
| 20260505090219 | 14 | 180 | 0.0 | 0.0 | 0.00 | 0.00 | 0.00 | 86 | 1012.5 |
| 20260505085927 | 14 | 180 | 0.0 | 0.0 | 0.00 | 0.00 | 0.00 | 86 | 1012.6 |
| 20260505085159 | 14 | 180 | 0.0 | 0.0 | 0.00 | 0.00 | 0.00 | 86 | 1012.5 |
| 20260505084911 | 14 | 180 | 0.0 | 0.0 | 0.00 | 0.00 | 0.00 | 86 | 1012.6 |
| 20260505084139 | 13 | 180 | 0.0 | 0.0 | 0.00 | 0.00 | 0.00 | 86 | 1012.4 |
| 20260505083628 | 13 | 180 | 0.0 | 0.0 | 0.00 | 0.00 | 0.00 | 86 | 1012.3 |
| 20260505083119 | 13 | 180 | 0.0 | 0.0 | 0.00 | 0.00 | 0.00 | 87 | 1012.3 |
| 20260505082609 | 13 | 180 | 0.0 | 0.0 | 0.00 | 0.00 | 0.00 | 87 | 1012.3 |
| 20260505082058 | 13 | 180 | 0.0 | 0.0 | 0.00 | 0.00 | 0.00 | 87 | 1012.4 |
| 20260505081548 | 13 | 158 | 0.0 | 0.0 | 0.00 | 0.00 | 0.00 | 87 | 1012.3 |
| 20260505081258 | 13 | 158 | 0.0 | 0.0 | 0.00 | 0.00 | 0.00 | 88 | 1012.4 |
| 20260505080529 | 13 | 180 | 0.0 | 0.0 | 0.00 | 0.00 | 0.00 | 88 | 1012.5 |
| 20260505080017 | 13 | 180 | 0.0 | 0.0 | 0.00 | 0.00 | 0.00 | 88 | 1012.4 |
| 20260505075507 | 13 | 180 | 0.0 | 0.0 | 0.00 | 0.00 | 0.00 | 89 | 1012.4 |
| 20260505074447 | 13 | 180 | 0.0 | 0.0 | 0.00 | 0.00 | 0.00 | 89 | 1012.1 |
| 20260505073938 | 12 | 180 | 0.0 | 0.0 | 0.00 | 0.00 | 0.00 | 89 | 1012.3 |
| 20260505073439 | 12 | 0.0 | 0.0 | 0.00 | 0.00 | 0.00 | 89 | ||
| 20260505071002 | 12 | 180 | 0.0 | 0.0 | 0.00 | 0.00 | 0.00 | 89 | 1012.0 |
| 20260505070452 | 12 | 180 | 0.0 | 0.0 | 0.00 | 0.00 | 0.00 | 89 | 1012.0 |
| 20260505065941 | 12 | 180 | 0.0 | 0.0 | 0.00 | 0.00 | 0.00 | 89 | 1011.9 |
| 20260505065431 | 12 | 158 | 0.0 | 0.0 | 0.00 | 0.00 | 0.00 | 89 | 1012.0 |
| 20260505064921 | 12 | 158 | 0.0 | 0.0 | 0.00 | 0.00 | 0.00 | 89 | 1012.0 |
| 20260505064413 | 12 | 0.0 | 0.0 | 0.00 | 0.00 | 0.00 | 89 | ||
| 20260505063004 | 12 | 180 | 0.0 | 0.0 | 0.00 | 0.00 | 0.00 | 89 | 1012.1 |
| 20260505062455 | 12 | 180 | 0.0 | 0.0 | 0.00 | 0.00 | 0.00 | 89 | 1012.0 |
| 20260505061945 | 12 | 180 | 0.0 | 0.0 | 0.00 | 0.00 | 0.00 | 89 | 1012.2 |
| 20260505061435 | 12 | 180 | 0.0 | 0.0 | 0.00 | 0.00 | 0.00 | 89 | 1012.2 |
| 20260505060924 | 12 | 180 | 0.0 | 0.0 | 0.00 | 0.00 | 0.00 | 89 | 1011.9 |
| 20260505060414 | 12 | 180 | 0.0 | 0.0 | 0.00 | 0.00 | 0.00 | 89 | 1012.0 |
| 20260505060130 | 12 | 180 | 0.0 | 0.0 | 0.00 | 0.00 | 0.00 | 89 | 1012.0 |
| 20260505055355 | 12 | 180 | 0.0 | 0.0 | 0.00 | 0.00 | 0.00 | 89 | 1012.0 |
| 20260505055109 | 11 | 180 | 0.0 | 0.0 | 0.00 | 0.00 | 0.00 | 88 | 1012.0 |
| 20260505054333 | 11 | 180 | 0.0 | 0.0 | 0.00 | 0.00 | 0.00 | 88 | 1012.2 |
| 20260505053824 | 12 | 180 | 0.0 | 0.0 | 0.00 | 0.00 | 0.00 | 88 | 1012.3 |
| 20260505053314 | 12 | 180 | 0.0 | 0.0 | 0.00 | 0.00 | 0.00 | 87 | 1012.4 |
| 20260505052803 | 12 | 180 | 0.0 | 0.0 | 0.00 | 0.00 | 0.00 | 87 | 1012.4 |
| 20260505052254 | 12 | 180 | 0.0 | 0.0 | 0.00 | 0.00 | 0.00 | 86 | 1012.3 |
| 20260505051744 | 12 | 180 | 0.0 | 0.0 | 0.00 | 0.00 | 0.00 | 86 | 1012.6 |
| 20260505051234 | 12 | 180 | 0.0 | 0.0 | 0.00 | 0.00 | 0.00 | 85 | 1012.4 |
| 20260505050948 | 12 | 180 | 0.0 | 0.0 | 0.00 | 0.00 | 0.00 | 85 | 1012.6 |
| 20260505050212 | 12 | 180 | 0.0 | 0.0 | 0.00 | 0.00 | 0.00 | 85 | 1012.5 |
| 20260505041542 | 12 | 180 | 0.0 | 0.0 | 0.00 | 0.00 | 0.00 | 85 | 1012.1 |
| 20260505041031 | 12 | 180 | 0.0 | 0.0 | 0.00 | 0.00 | 0.00 | 85 | 1012.2 |
| 20260505040522 | 12 | 180 | 0.0 | 0.0 | 0.00 | 0.00 | 0.00 | 84 | 1012.5 |
| 20260505040014 | 12 | 180 | 0.0 | 0.0 | 0.00 | 0.00 | 0.00 | 84 | 1012.3 |
| 20260505035502 | 12 | 180 | 0.0 | 0.0 | 0.00 | 0.00 | 0.00 | 83 | 1012.4 |
| 20260505034951 | 12 | 180 | 0.0 | 0.0 | 0.00 | 0.00 | 0.00 | 82 | 1012.1 |
| 20260505034441 | 13 | 180 | 0.0 | 0.0 | 0.00 | 0.00 | 0.00 | 82 | 1012.2 |
| 20260505033931 | 13 | 180 | 0.0 | 0.0 | 0.00 | 0.00 | 0.00 | 82 | 1012.4 |
| 20260505033421 | 13 | 203 | 0.0 | 0.0 | 0.00 | 0.00 | 0.00 | 81 | 1012.4 |
| 20260505032911 | 13 | 203 | 0.0 | 0.0 | 0.00 | 0.00 | 0.00 | 81 | 1012.4 |
| 20260505032401 | 13 | 158 | 0.0 | 0.0 | 0.00 | 0.00 | 0.00 | 81 | 1012.0 |
| 20260505031851 | 13 | 158 | 0.0 | 0.0 | 0.00 | 0.00 | 0.00 | 82 | 1011.9 |
| 20260505031341 | 13 | 158 | 0.0 | 0.0 | 0.00 | 0.00 | 0.00 | 83 | 1011.8 |
| 20260505031052 | 13 | 158 | 0.0 | 0.0 | 0.00 | 0.00 | 0.00 | 84 | 1012.1 |
| 20260505030320 | 12 | 180 | 0.0 | 0.0 | 0.00 | 0.00 | 0.00 | 84 | 1012.2 |
| 20260505025811 | 12 | 180 | 0.0 | 0.0 | 0.00 | 0.00 | 0.00 | 84 | 1012.3 |
| 20260505025523 | 12 | 180 | 0.0 | 0.0 | 0.00 | 0.00 | 0.00 | 84 | 1012.4 |
| 20260505024750 | 12 | 180 | 0.0 | 0.0 | 0.00 | 0.00 | 0.00 | 85 | 1012.4 |
| 20260505024503 | 12 | 180 | 0.0 | 0.0 | 0.00 | 0.00 | 0.00 | 84 | 1012.5 |
| 20260505023730 | 12 | 180 | 0.0 | 0.0 | 0.00 | 0.00 | 0.00 | 84 | 1012.4 |
| 20260505023220 | 12 | 180 | 0.0 | 0.0 | 0.00 | 0.00 | 0.00 | 83 | 1012.6 |
| 20260505022938 | 13 | 180 | 0.0 | 0.0 | 0.00 | 0.00 | 0.00 | 83 | 1012.3 |
| 20260505022159 | 12 | 180 | 0.0 | 0.0 | 0.00 | 0.00 | 0.00 | 82 | 1012.5 |
| 20260505021650 | 13 | 180 | 0.0 | 0.0 | 0.00 | 0.00 | 0.00 | 82 | 1012.4 |
| 20260505021140 | 13 | 180 | 0.0 | 0.0 | 0.00 | 0.00 | 0.00 | 81 | 1012.4 |
| 20260505020629 | 13 | 180 | 0.0 | 0.0 | 0.00 | 0.00 | 0.00 | 81 | 1012.3 |
| 20260505020355 | 13 | 180 | 0.0 | 0.0 | 0.00 | 0.00 | 0.00 | 80 | 1012.3 |
| 20260505015826 | 13 | 180 | 0.0 | 0.0 | 0.00 | 0.00 | 0.00 | 80 | 1012.3 |